Regional Weather Roundup
Issued by NWS

Home | Current Version | Previous Version | Graphics & Text | Print | Product List | Glossary On
Versions: 1 2 3 4 5 6 7 8 9 10 11 12 13 14 15 16 17 18 19 20 21 22 23 24 25 26 27 28 29 30 31 32 33 34 35 36 37 38 39 40 41 42 43 44 45 46 47 48 49 50
000
ASUS45 KABQ 261910
RWRNM
NEW MEXICO REGIONAL WEATHER ROUNDUP
NATIONAL WEATHER SERVICE ALBUQUERQUE NM
100 PM MDT WED APR 26 2017

NOTE: "FAIR" MEANS FEW OR NO CLOUDS BELOW 12,000 FEET AGL WITH NO
       SIGNIFICANT WEATHER OR OBSTRUCTIONS TO VISION.

      THIS PRODUCT IS RELEASED AS TWO VERSIONS.  ONE VERSION NEAR
      THE TOP OF THE HOUR CONTAINING PRELIMINARY DATA FROM ALBUQUERQUE
      AND OTHER STATIONS.  A FINAL VERSION WITH ADDITIONAL DATA IS
      ISSUED ABOUT 10 MINUTES AFTER THE HOUR.

NMZ501-503-504-510>518-262000-
NORTHWEST PLATEAU/NORTHCENTRAL MOUNTAINS

CITY           SKY/WX    TMP DP  RH WIND       PRES   REMARKS
FARMINGTON     FAIR      56  21  25 W17G25    29.89F
LOS ALAMOS     FAIR      51  25  37 SE6       29.90F
SANTA FE       FAIR      56  28  34 VRB6G20   29.87F
TAOS             N/A     52  27  37 S6G18     29.87F
ANGEL FIRE     FAIR      43  28  57 SW9G24    29.90F

$$
NMZ402-403-502-505>509-262000-
WESTCENTRAL MOUNTAINS/SOUTHWEST MOUNTAINS

CITY           SKY/WX    TMP DP  RH WIND       PRES   REMARKS
GALLUP         FAIR      58  18  21 W13G23    29.95F
GRANTS         FAIR      58  16  18 W16G30    29.94F
SILVER CITY    FAIR      66  11  12 W13G25    29.94F

$$
NMZ407-409-411-412-262000-
SOUTHERN DESERTS

CITY           SKY/WX    TMP DP  RH WIND       PRES   REMARKS
DEMING         FAIR      72  18  13 NW9       29.91F
LAS CRUCES     FAIR      68  16  13 CALM      29.93F
HOLLOMAN AFB   FAIR      67  17  14 W13G18    29.92F
ALAMOGORDO     FAIR      66  18  15 NW12      29.90F
T OR C         FAIR      66  16  14 S9G17     29.88F

$$
NMZ519>523-262000-
CENTRAL VALLEYS/CENTRAL HIGHLANDS

CITY           SKY/WX    TMP DP  RH WIND       PRES   REMARKS
ALBUQUERQUE    FAIR      59  23  25 W15G24    29.90F
DOUBLE EAGLE     N/A     55  27  33 W7        29.90F
MORIARTY ARPT  FAIR      60  26  26 W15G23    29.90F
CLINES CORNERS FAIR      56  20  24 NW20G31   29.90F
BELEN          FAIR      63  16  16 SW8       29.89F
SOCORRO        FAIR      67  16  13 N9        29.88F

$$
NMZ524>526-539-540-262000-
SOUTHCENTRAL MOUNTAINS

CITY           SKY/WX    TMP DP  RH WIND       PRES   REMARKS
RUIDOSO        FAIR      55  18  22 NW16G23   29.96F

$$
NMZ527>531-262000-
NORTHEAST HIGHLANDS/NORTHEAST PLAINS

CITY           SKY/WX    TMP DP  RH WIND       PRES   REMARKS
LAS VEGAS      FAIR      56  17  21 VRB7      29.82F
RATON          FAIR      56  24  29 S10G17    29.80F
CLAYTON        FAIR      53  32  44 NW17G24   29.82F

$$
NMZ532>537-262000-
EASTCENTRAL PLAINS

CITY           SKY/WX    TMP DP  RH WIND       PRES   REMARKS
SANTA ROSA     FAIR      66  26  21 SW17G23   29.79F
TUCUMCARI      FAIR      58  39  49 SW10      29.82F
CANNON AFB     PTSUNNY   55  36  47 W8        29.86F
CLOVIS AIRPORT FAIR      57  36  44 W13       29.86F

$$
NMZ028-029-538-262000-
SOUTHEAST PLAINS

CITY           SKY/WX    TMP DP  RH WIND       PRES   REMARKS
ROSWELL        FAIR      64  34  32 VRB3      29.89
ARTESIA        FAIR      64  34  32 NE10      29.88F
CARLSBAD       FAIR      67  34  29 NE13      29.88F
HOBBS          MOSUNNY   63  34  34 N7G18     29.89F


$$




USA.gov is the U.S. government's official web portal to all federal, state and local government web resources and services.